User: anonymous   Login
Location: Unspecified
(0.0000°N, 0.0000°E)
Time: 08:53:22
(UTC+00:00)
Language:

SKCUBE - Orbit

View from above orbital plane
View from above orbital plane
View from above satellite
View from above satellite

Ground track
Ground track

The orbit data is extracted from the following two-line orbital elements,

1 42789U 17036AA  18267.80630608 +.00001395 +00000-0 +63777-4 0  9994
2 42789 097.3912 326.0359 0013451 088.0650 272.2126 15.22132690069662
Epoch (UTC): 24 September 2018 19:21:04
Eccentricity: 0.0013451
inclination: 97.3912°
perigee height: 490 km
apogee height: 508 km
right ascension of ascending node: 326.0359°
argument of perigee: 88.0650°
revolutions per day: 15.22132690
mean anomaly at epoch: 272.2126°
orbit number at epoch: 6966

The dashed part of the orbit path shows where the satellite is in the earth's shadow,  

DLR